Change the Weather History Date:

Friday, January 18, 2013

  Actual Average (KMRH) Record (KMRH)
Temperature  
Mean Temperature 44 °F -  
Max Temperature 46 °F 54 °F 76 °F (1986)
Min Temperature 42 °F 33 °F 13 °F (1977)
Degree Days  
Heating Degree Days 21    
Moisture  
Dew Point 34 °F    
Average Humidity 70    
Maximum Humidity 100    
Minimum Humidity 46    
Precipitation  
Precipitation 0.00 in - - ()
Sea Level Pressure  
Sea Level Pressure 30.32 in    
Wind  
Wind Speed 18 mph (North)    
Max Wind Speed 24 mph    
Max Gust Speed 33 mph    
Visibility 10 miles    
Events      
Averages and records for this station are not official NWS values.
T = Trace of Precipitation, MM = Missing Value Source: NWS Daily Summary

Daily Weather History Graph

Daily Weather History Graph

Search for Another Location

Airport or City:

Trip Planner

Search our weather history database for the weather conditions in past years. The results will help you decide how hot, cold, wet, or windy it might be!

Date:

Astronomy

Jan. 18, 2013 Rise Set
Actual Time 7:12 AM EST 5:20 PM EST
Civil Twilight 6:45 AM EST 5:48 PM EST
Nautical Twilight 6:14 AM EST 6:18 PM EST
Astronomical Twilight 5:43 AM EST 6:49 PM EST
Moon 11:08 AM EST (1/18) No Moon Set
Length of Visible Light 11h 02m
Length of Day
10h 08m
Waxing Crescent, 47% of the Moon is Illuminated
Jan 18
Waxing Crescent
Jan 18
First Quarter
Jan 26
Full
Feb 3
Last Quarter
Feb 10
New

Hourly Weather History & Observations

Time (EST) Temp. Windchill Dew Point Humidity Pressure Visibility Wind Dir Wind Speed Gust Speed Precip Events Conditions
12:56 AM 45.0 °F 36.2 °F 44.1 °F 97% 29.95 in 10.0 mi North 24.2 mph 33.4 mph N/A   Overcast
1:03 AM 44.6 °F 36.4 °F 44.6 °F 100% 29.96 in 10.0 mi North 20.7 mph 31.1 mph N/A   Overcast
1:27 AM 44.6 °F 36.4 °F 42.8 °F 93% 30.01 in 10.0 mi North 20.7 mph 31.1 mph N/A   Overcast
1:48 AM 46.4 °F 38.5 °F 41.0 °F 81% 30.04 in 10.0 mi North 21.9 mph 31.1 mph N/A   Overcast
1:56 AM 45.0 °F 36.9 °F 39.9 °F 82% 30.07 in 10.0 mi NNW 20.7 mph 28.8 mph N/A   Overcast
2:56 AM 43.0 °F 34.0 °F 37.9 °F 82% 30.11 in 10.0 mi NNW 21.9 mph 32.2 mph 0.00 in   Overcast
3:34 AM 42.8 °F 35.1 °F 37.4 °F 81% 30.11 in 10.0 mi North 16.1 mph 24.2 mph N/A   Overcast
3:56 AM 43.0 °F 34.0 °F 37.9 °F 82% 30.16 in 10.0 mi NNW 21.9 mph 28.8 mph N/A   Overcast
4:56 AM 43.0 °F 34.0 °F 37.9 °F 82% 30.20 in 10.0 mi NNW 21.9 mph 27.6 mph N/A   Overcast
5:14 AM 42.8 °F 34.3 °F 37.4 °F 81% 30.20 in 10.0 mi NNW 19.6 mph 28.8 mph N/A   Overcast
5:56 AM 42.1 °F 33.9 °F 37.0 °F 82% 30.25 in 10.0 mi NNW 17.3 mph 27.6 mph N/A   Mostly Cloudy
6:19 AM 42.8 °F 34.0 °F 35.6 °F 76% 30.26 in - NNW 20.7 mph - N/A   Scattered Clouds
6:56 AM 42.1 °F 34.5 °F 36.0 °F 79% 30.30 in - NNW 15.0 mph - N/A   Partly Cloudy
7:56 AM 42.1 °F 34.5 °F 35.1 °F 76% 30.33 in - NNW 15.0 mph - N/A   Clear
8:56 AM 43.0 °F 35.7 °F 35.1 °F 74% 30.38 in - NNW 15.0 mph - N/A   Clear
9:56 AM 45.0 °F 38.2 °F 32.0 °F 60% 30.43 in - North 15.0 mph - N/A   Clear
10:56 AM 45.0 °F 37.6 °F 33.1 °F 63% 30.44 in - North 17.3 mph 21.9 mph N/A   Clear
11:56 AM 45.0 °F 37.9 °F 33.1 °F 63% 30.43 in - North 16.1 mph - N/A   Scattered Clouds
12:56 PM 46.0 °F 39.6 °F 32.0 °F 58% 30.43 in - North 15.0 mph - N/A   Scattered Clouds
1:56 PM 46.9 °F - 32.0 °F 56% 30.44 in - North 13.8 mph - N/A   Clear
2:56 PM 46.9 °F - 30.0 °F 52% 30.45 in - North 15.0 mph 20.7 mph N/A   Clear
3:56 PM 46.9 °F - 28.0 °F 48% 30.47 in - North 13.8 mph 21.9 mph N/A   Clear
4:56 PM 46.0 °F 40.6 °F 27.0 °F 47% 30.49 in - North 11.5 mph 20.7 mph N/A   Clear
5:56 PM 45.0 °F 39.7 °F 25.0 °F 46% 30.51 in - NNE 10.4 mph - N/A   Clear
6:56 PM 44.1 °F 39.5 °F 25.0 °F 47% 30.53 in - NNE 8.1 mph - N/A   Clear
7:56 PM 43.0 °F 37.2 °F 30.9 °F 62% 30.54 in - NE 10.4 mph - N/A   Clear
8:56 PM 43.0 °F 36.8 °F 28.9 °F 58% 30.55 in - NNE 11.5 mph - N/A   Clear
9:56 PM 43.0 °F 36.4 °F 28.0 °F 56% 30.54 in - NE 12.7 mph - N/A   Clear
10:56 PM 42.1 °F 37.1 °F 30.0 °F 62% 30.52 in - NNE 8.1 mph - N/A   Clear
11:56 PM 42.1 °F 37.7 °F 28.9 °F 60% 30.51 in - NNE 6.9 mph - N/A   Clear